Location: Kapla
(46.2483°N, 15.0094°E)
Time: 14:26:09
(UTC+00:00)

USA 308 - Pass Details

Date: 03 March 2021
Orbit: 568 x 576 km, 54.0° (Epoch: 13 April)

Event Time Altitude Azimuth Distance (km) Brightness Sun altitude
Rises 18:28:11 0° 288° (WNW) 2,777 8.1 -17.9°
Reaches altitude 10° 18:30:41 10° 300° (WNW) 1,878 6.6 -18.3°
Maximum altitude 18:34:24 28° 1° (N) 1,081 4.4 -18.9°
Enters shadow 18:35:58 22° 37° (NE) 1,259 4.4 -19.2°
